SCP
0 0 0 0 0 0 0 0 0 0 0 0 0 0 0 0 0 0 0 0 0 0 0 0 0 0 0 0 -0 -0 0 0 -0 -0 0 0 0 0 0 0 0 -0 0 0 0 0 0
0 0 0 0 0 0 0 0 0 0 0 0 0 0 0 0 0 0 0 0 0 0 0 0 0 0 0 0 0 0 0 0 -0 0 0 -0 0 0 0 0 -0 -0 -0 0 0 0 0
0 0 0 0 0 0 0 0 0 0 0 0 0 0 0 0 0 0 0 0 0 0 0 0 0 0 -0 0 0 0 0 0 0 -0 -0 -0 -0 0 0 0 0 -0 -0 0 0 0 0
0 0 0 0 0 0 0 0 0 0 0 0 0 0 0 0 0 0 0 0 0 0 0 0 0 0 0 0 0 -0 0 0 0 0 -0 -0 -0 0 0 0 0 -0 -0 0 0 0 0
0 0 0 0 0 0 0 0 0 0 0 0 0 0 0 0 0 0 0 0 0 0 0 0 0 0 0 0 -0 0 0 0 0 0 0 -0 0 0 0 0 0 -0 0 0 0 0 0
0 0 0 0 0 0 0 0 0 0 0 0 0 0 0 0 0 0 0 0 0 0 0 0 0 0 0 0 0 0 0 0 0 0 0 0 0 0 0 0 -0 0 -0 0 0 -0 0
0 0 0 0 0 0 0 0 0 0 0 0 0 0 0 0 0 0 0 0 0 0 0 0 0 0 0 0 0 0 0 0 0 0 0 0 0 0 0 0 -0 0 0 -0 -0 -0 0
0 0 0 0 0 0 0 0 0 0 0 0 0 0 0 0 0 0 0 0 0 -0 0 0 0 0 0 0 0 0 0 0 0 0 0 0 -0 0 0 -0 0 0 0 -0 0 -0 0
0 0 0 0 0 0 0 0 0 0 0 0 0 0 0 0 0 0 0 0 0 0 0 0 0 -0 0 0 0 0 0 0 0 0 0 0 0 -0 -0 0 0 0 -0 -0 0 0 0
0 0 0 0 0 0 0 0 0 0 0 0 0 0 0 0 0 0 0 0 0 -0 0 0 0 0 0 0 0 0 0 0 0 0 0 0 -0 -0 0 0 -0 0 -0 -0 -0 0 0
0 0 0 0 0 0 0 0 0 0 0 0 0 0 0 0 0 0 0 0 0 0 0 0 0 0 0 0 0 0 0 0 0 0 0 -0 -0 0 0 0 0 0 -0 0 -0 0 0
0 0 0 0 0 0 0 0 0 0 0 0 0 0 0 -0 0 0 0 0 0 0 0 0 0 0 0 0 0 0 0 0 0 0 0 -0 0 0 0 0 0 -0 0 0 0 0 0
0 0 0 0 0 0 0 0 0 0 0 0 0 0 0 0 0 0 0 0 0 0 0 0 -0 0 0 0 0 0 0 0 0 0 0 0 0 -0 -0 0 -0 0 0 0 0 0 -0
0 0 0 0 0 0 0 0 0 0 0 0 0 -0 -0 0 0 0 0 0 0 0 0 0 0 0 0 0 0 0 0 0 0 0 0 0 0 0 0 -0 0 0 0 0 0 0 0
0 0 0 0 0 0 0 0 0 0 0 0 0 -0 0 0 0 0 0 0 0 -0 0 0 0 0 0 -0 0 0 0 0 0 0 0 0 0 0 0 0 0 0 0 0 0 0 0
0 0 0 0 0 0 0 0 0 0 0 0 0 0 0 0 0 0 0 0 0 0 0 0 0 0 0 0 0 0 0 0 0 0 0 0 0 0 0 -0 0 0 0 0 0 0 0
0 0 0 0 0 0 0 0 0 0 0 0 0 0 0 0 0 0 0 0 -0 0 -0 0 0 0 0 0 -0 0 0 0 0 0 0 0 0 0 -0 -0 0 0 0 0 0 0 0
0 0 0 0 0 0 0 0 0 0 0 0 0 0 0 0 0 0 0 0 0 0 0 -0 0 0 0 0 0 0 0 0 0 0 0 0 -0 0 0 0 0 0 -0 0 0 0 0
0 0 0 0 0 0 0 0 0 0 0 0 0 0 0 0 0 0 0 0 0 0 0 0 0 0 0 0 0 0 -0 0 0 0 -0 0 0 0 -0 0 0 0 0 0 0 0 0
0 0 0 0 0 0 -0 0 0 0 0 0 0 0 0 0 0 0 0 0 0 0 0 0 0 0 0 0 0 0 0 -0 -0 0 -0 0 0 0 0 0 -0 0 0 0 0 0 0
0 0 0 0 0 0 -0 -0 -0 0 0 0 0 0 0 0 0 0 0 0 0 0 0 0 0 0 0 0 0 0 0 0 0 0 0 0 0 0 0 -0 0 0 0 0 0 0 0
-0 0 0 0 0 -0 -0 -0 -0 -0 0 0 0 0 0 0 0 0 0 0 0 0 0 0 0 0 0 0 0 0 0 0 0 0 0 0 0 0 0 0 0 0 0 0 0 0 0
0 0 0 0 0 -0 -0 -0 -0 -0 0 0 0 0 0 0 0 0 0 0 0 0 0 0 0 0 0 0 -0 0 0 0 0 0 0 0 0 0 0 0 0 0 0 0 0 0 0
0 0 0 0 0 -0 -0 -0 -0 0 0 0 0 0 0 -0 0 0 0 0 0 0 0 0 0 0 0 -0 0 -0 -0 0 0 0 0 0 0 0 0 0 0 0 0 0 0 0 0
0 0 0 0 -0 0 -0 -0 -0 0 0 0 0 0 0 -0 -0 -0 0 -0 -0 -0 -0 -0 0 0 0 0 0 0 -0 0 0 0 0 0 0 0 0 0 0 0 0 0 0 1 0
0 0 0 0 0 0 0 -0 -0 0 0 0 0 0 0 0 0 -0 -0 -0 -0 -0 -0 0 0 0 -0 -0 -0 0 0 0 0 0 0 0 0 0 0 0 0 0 0 0 0 0 0
0 0 0 0 0 0 0 0 0 0 0 0 0 0 0 0 0 0 0 -0 -0 -0 0 0 0 0 0 0 0 0 0 0 0 0 0 0 0 0 0 0 0 0 0 0 0 0 -0
0 0 0 0 0 0 0 0 0 0 0 0 0 0 0 0 0 0 0 0 0 0 0 0 0 0 0 0 0 0 0 0 0 0 0 0 0 0 0 0 0 0 0 0 0 0 0
0 0 0 0 0 0 0 0 0 0 0 0 0 0 0 0 0 0 0 0 0 -0 0 0 -0 -0 0 0 1 1 0 0 -0 0 0 0 0 1 0 0 0 0 0 0 0 0 0
Wind_Speed_500mb
28 28 28 28 28 28 28 28 28 27 27 27 27 27 26 25 24 24 23 19 20 18 17 15 18 16 14 11 17 4 3 10 21 24 33 31 38 13 2 11 11 22 15 34 36 55 48
27 27 28 28 28 28 28 28 28 28 28 28 28 28 28 27 26 24 23 20 18 18 17 14 16 18 14 9 17 9 3 15 22 26 34 29 28 48 40 10 7 24 39 33 37 38 36
25 26 27 28 28 29 29 29 29 28 28 28 27 28 29 29 29 27 25 21 18 16 16 15 15 19 24 34 15 18 12 11 10 22 33 26 38 42 39 17 41 41 16 18 27 33 17
25 25 26 27 28 29 29 30 30 30 29 28 28 27 28 28 29 29 27 22 15 15 15 15 15 20 23 26 37 24 19 15 13 16 28 32 45 49 4 24 23 7 12 14 19 29 24
26 27 27 28 29 29 29 30 31 31 31 30 28 27 28 30 29 27 27 22 15 12 13 14 14 14 24 21 37 31 22 16 13 17 24 32 38 29 14 8 10 11 13 12 11 31 15
28 28 29 29 30 30 30 29 31 32 32 32 30 29 28 29 31 28 25 20 14 12 12 14 18 17 24 13 38 36 34 26 16 18 23 26 17 7 7 10 6 9 7 10 14 17 19
26 29 29 31 32 31 30 31 31 33 34 34 33 31 28 27 30 28 20 13 10 3 18 24 21 31 42 20 15 30 18 31 23 22 5 31 6 16 23 13 16 25 12 8 8 21 15
27 29 29 30 34 35 34 32 31 33 35 36 36 34 30 27 27 26 20 9 4 17 20 36 42 58 59 54 23 25 30 26 13 12 3 9 15 28 14 22 20 23 6 11 17 23 11
27 28 29 30 33 33 35 34 31 34 35 37 38 37 34 26 24 15 13 14 21 35 10 34 52 48 50 13 21 33 35 47 8 11 10 14 31 8 13 29 20 19 9 15 15 17 12
27 27 29 31 34 35 36 37 34 35 34 36 38 38 35 27 12 10 6 17 26 11 8 14 10 20 37 23 14 32 49 36 10 19 11 14 27 25 18 21 10 16 13 22 16 13 12
30 28 29 30 32 35 37 39 37 36 37 38 37 37 33 31 24 16 17 14 12 6 7 7 9 5 28 21 7 24 27 35 17 12 14 23 9 12 13 32 17 22 17 8 6 7 8
31 33 33 33 32 34 39 42 42 40 40 41 39 36 38 31 26 11 13 6 4 10 10 7 17 15 12 16 8 8 31 25 11 11 9 17 22 10 22 31 13 19 6 14 10 7 6
30 30 32 32 35 34 40 45 45 43 42 44 42 34 40 33 13 5 2 4 9 6 12 1 9 11 11 14 12 7 2 7 14 9 11 14 19 15 13 10 15 2 14 7 9 9 11
28 28 27 28 33 41 41 49 50 48 44 46 43 37 37 32 18 19 7 9 7 7 11 10 12 2 14 12 14 9 6 9 13 10 6 12 19 9 8 15 18 15 17 12 10 5 10
25 25 23 27 33 40 47 48 50 49 41 46 40 36 39 12 26 29 11 5 15 13 6 12 20 9 11 13 10 16 15 14 19 21 20 7 16 13 8 13 19 13 2 12 12 6 8
24 24 25 29 33 41 48 48 49 46 36 37 39 40 27 19 26 38 9 13 11 8 14 12 5 7 12 16 16 16 16 13 15 25 17 14 10 12 16 7 14 16 10 3 7 4 2
29 26 29 36 38 43 46 46 42 40 31 28 24 21 8 33 41 20 8 14 10 20 21 5 10 16 14 14 17 14 17 15 17 17 21 13 11 42 5 6 17 7 1 9 12 11 10
33 29 31 34 33 36 37 37 35 36 28 16 9 3 16 42 9 7 6 9 9 24 41 15 11 22 16 6 5 12 23 22 43 33 21 17 12 15 24 21 11 13 21 13 10 6 5
37 33 31 29 28 30 33 34 30 31 32 28 21 11 28 44 5 6 11 13 14 19 17 10 11 22 21 5 5 10 12 37 35 19 23 14 5 10 22 17 10 6 8 12 14 8 5
38 43 35 29 27 29 30 34 30 28 27 25 10 7 9 42 26 6 5 14 13 23 24 25 19 12 12 4 7 10 7 15 42 29 65 30 8 15 17 16 6 5 7 6 15 9 13
35 37 41 35 24 27 31 31 31 29 22 17 3 7 12 7 10 12 5 12 32 28 14 16 14 10 12 8 17 10 5 16 11 28 17 18 12 8 10 9 9 9 12 11 10 17 13
34 35 38 41 26 24 27 33 36 27 19 8 8 11 19 15 21 8 3 12 33 31 14 32 5 32 15 11 17 26 6 2 17 6 12 1 8 9 8 10 14 11 5 12 12 10 16
29 32 34 35 35 28 27 31 36 31 17 3 8 9 7 14 10 9 9 12 18 26 20 26 27 24 20 22 16 38 45 40 20 11 10 13 12 8 9 7 5 9 5 11 10 10 15
28 30 32 34 34 33 32 30 31 31 24 16 14 14 7 8 6 6 20 21 29 19 13 33 35 12 46 36 40 35 21 29 14 15 11 13 14 7 5 10 3 12 20 23 23 13 16
29 30 31 34 35 35 36 32 26 26 24 17 10 7 4 7 9 18 25 17 31 28 7 12 32 35 50 25 7 11 12 14 16 12 18 10 12 8 11 5 5 9 11 4 36 1 20
32 30 30 32 34 35 35 36 31 23 22 18 8 17 7 10 10 6 15 15 7 9 13 12 37 41 23 5 5 7 8 11 9 11 2 12 12 12 8 11 10 13 3 9 15 1 20
32 31 30 30 31 33 34 32 35 30 21 16 11 10 12 13 30 20 7 9 11 6 6 13 32 25 29 5 4 3 8 7 9 11 12 8 7 14 8 8 7 12 12 8 5 17 54
33 31 31 31 30 31 32 32 33 30 24 14 9 7 10 14 53 58 40 30 26 14 4 13 13 12 12 11 4 6 4 2 7 9 15 14 14 7 9 9 6 25 7 16 15 50 58
33 31 31 31 32 31 30 30 32 29 28 18 9 21 24 29 34 35 41 55 64 62 12 8 8 7 5 3 7 8 7 7 3 7 14 7 6 12 12 14 6 52 16 29 50 67 55
Wind_Direction_500mb
23 22 21 19 13 11 8 4 2 359 357 355 353 347 342 339 339 337 333 327 315 304 293 296 299 298 298 269 248 108 314 274 250 264 270 286 304 302 83 273 140 123 150 139 140 124 127
18 15 13 14 13 10 7 3 1 357 354 352 349 346 341 337 335 333 329 324 312 301 291 289 290 297 285 267 215 228 315 289 252 256 262 278 287 312 287 292 182 166 147 134 145 140 139
9 11 9 6 6 7 4 2 359 356 353 350 346 341 338 335 332 330 326 320 310 296 287 288 288 289 273 233 183 214 231 263 260 259 278 290 307 291 309 331 349 156 120 128 157 147 130
357 358 1 2 0 359 359 358 356 354 351 348 342 338 333 332 327 325 323 317 304 292 281 283 291 292 265 228 233 215 219 246 239 254 275 297 307 300 319 322 344 137 93 142 209 154 184
350 347 348 349 351 354 354 353 352 351 349 346 342 335 330 328 324 322 320 315 304 285 271 274 288 285 266 233 231 195 207 243 247 256 277 286 292 303 331 57 358 359 165 195 190 204 154
342 344 344 343 342 343 347 347 346 347 346 346 342 334 327 325 322 320 320 316 307 283 267 273 258 295 255 314 223 223 220 235 278 271 284 273 294 1 14 75 247 262 224 179 190 216 177
334 335 337 340 339 337 335 337 339 342 343 343 339 334 328 322 318 319 322 320 340 37 303 260 276 259 275 312 248 227 220 213 236 270 244 293 9 253 261 232 251 276 245 246 213 186 153
325 326 330 333 333 333 333 327 330 335 338 337 335 333 329 320 313 314 317 318 7 329 299 289 268 268 270 274 298 226 222 205 194 221 200 331 234 246 256 267 267 270 155 265 288 182 131
322 323 325 328 332 332 334 332 326 326 330 332 332 332 330 322 310 307 316 5 340 316 287 283 249 245 251 257 236 253 215 210 173 212 216 197 243 260 247 277 272 278 187 232 210 163 200
320 318 320 322 327 330 331 331 325 322 321 325 327 329 330 327 307 299 35 359 346 346 33 274 207 239 229 240 273 243 213 200 207 203 224 231 265 247 267 271 276 268 221 201 230 126 203
313 313 314 316 322 325 327 328 322 317 318 318 320 322 322 319 300 290 301 334 4 125 351 231 187 217 191 180 249 208 197 197 192 213 126 247 274 273 266 252 258 251 249 305 153 173 57
308 307 306 309 312 318 323 326 324 315 312 313 310 315 310 310 298 282 258 292 1 47 260 288 156 161 137 194 266 9 217 220 257 223 257 245 281 191 238 265 251 277 256 37 56 88 31
306 308 306 309 310 318 322 323 321 315 310 309 303 305 300 292 273 263 235 342 51 156 310 169 192 161 165 180 248 179 202 202 188 164 251 305 280 279 239 280 320 42 63 4 1 11 229
312 309 305 308 308 312 315 319 320 314 310 309 302 302 287 275 248 228 231 65 176 251 269 300 21 334 185 160 244 220 205 229 258 138 125 199 291 198 242 186 215 229 147 152 194 205 265
330 332 318 304 311 313 314 319 320 315 312 309 309 303 288 263 210 193 171 100 208 212 299 16 344 126 257 229 189 162 207 213 223 182 196 186 267 291 275 250 146 251 146 191 119 133 74
328 327 325 317 314 311 319 321 322 319 320 314 319 317 285 183 179 172 91 231 223 257 6 32 289 272 338 240 175 158 190 216 218 193 171 223 288 250 293 357 281 166 170 84 7 115 95
333 315 309 310 312 315 320 323 325 324 328 318 323 321 339 156 155 150 182 230 281 265 305 278 274 289 256 244 210 176 216 255 205 205 160 156 131 273 6 175 249 269 313 66 119 123 154
338 334 327 326 329 326 329 329 331 332 334 326 317 320 188 163 110 193 200 210 237 267 281 285 255 250 226 258 255 233 208 202 207 192 194 193 164 232 241 270 224 228 195 160 140 237 79
1 343 336 337 339 343 342 339 338 343 343 354 334 280 190 180 159 247 278 269 255 268 261 255 276 291 296 179 328 236 230 236 221 163 185 171 237 258 311 342 358 215 166 126 102 80 183
4 5 355 349 355 359 357 351 346 349 338 345 337 343 190 221 239 179 347 288 271 290 274 248 261 275 279 339 166 283 286 288 226 199 210 152 126 164 216 216 212 24 70 117 122 121 155
349 1 2 356 356 359 359 353 348 346 339 340 289 272 17 303 330 339 311 271 291 295 276 316 301 224 263 323 339 283 296 339 255 214 127 127 152 151 198 208 209 187 79 150 145 163 136
347 347 357 2 350 350 349 346 349 352 357 22 343 1 341 298 296 290 253 299 279 302 240 287 223 301 280 248 199 280 296 73 265 76 127 4 170 128 222 281 250 155 223 154 91 93 79
349 346 347 358 0 336 332 334 342 355 13 355 323 292 324 293 340 14 6 323 319 336 298 268 287 301 285 263 284 284 278 258 232 269 184 119 129 102 241 192 357 19 11 232 124 102 157
341 341 349 347 353 357 347 332 335 344 359 354 349 334 334 284 346 5 331 333 332 320 275 293 300 267 305 309 293 302 282 254 238 228 234 136 117 110 151 51 131 254 302 187 127 107 103
341 341 340 343 349 355 356 352 338 333 338 336 322 262 291 288 318 289 348 320 315 326 305 267 3 327 316 298 25 348 334 351 296 244 206 161 129 122 118 157 233 331 334 92 126 193 138
333 332 336 339 342 348 352 352 347 339 332 341 309 215 235 301 241 1 317 300 303 318 324 297 343 357 5 59 96 208 232 229 286 292 128 83 109 127 102 114 163 196 340 219 132 96 174
329 328 327 329 333 336 342 347 351 343 334 338 171 203 238 268 279 299 236 269 282 294 265 302 333 343 14 336 113 185 258 245 243 212 168 127 53 143 107 131 269 220 138 152 169 215 165
323 322 323 323 324 328 330 336 341 344 341 329 206 211 249 259 272 268 258 272 264 235 218 302 357 0 344 5 80 247 135 314 354 324 297 153 137 149 93 88 238 187 158 170 200 142 161
326 324 322 321 321 322 323 324 329 337 342 321 241 215 252 265 261 271 269 263 250 249 271 291 153 195 244 354 1 326 343 29 192 338 324 29 183 161 154 202 247 163 152 155 151 159 165
Wind_Speed_850mb
28 28 28 28 28 28 28 28 28 27 27 27 27 27 26 25 24 24 23 19 20 18 17 15 18 16 14 11 17 4 3 10 21 24 33 31 38 13 2 11 11 22 15 34 36 55 48
27 27 28 28 28 28 28 28 28 28 28 28 28 28 28 27 26 24 23 20 18 18 17 14 16 18 14 9 17 9 3 15 22 26 34 29 28 48 40 10 7 24 39 33 37 38 36
25 26 27 28 28 29 29 29 29 28 28 28 27 28 29 29 29 27 25 21 18 16 16 15 15 19 24 34 15 18 12 11 10 22 33 26 38 42 39 17 41 41 16 18 27 33 17
25 25 26 27 28 29 29 30 30 30 29 28 28 27 28 28 29 29 27 22 15 15 15 15 15 20 23 26 37 24 19 15 13 16 28 32 45 49 4 24 23 7 12 14 19 29 24
26 27 27 28 29 29 29 30 31 31 31 30 28 27 28 30 29 27 27 22 15 12 13 14 14 14 24 21 37 31 22 16 13 17 24 32 38 29 14 8 10 11 13 12 11 31 15
28 28 29 29 30 30 30 29 31 32 32 32 30 29 28 29 31 28 25 20 14 12 12 14 18 17 24 13 38 36 34 26 16 18 23 26 17 7 7 10 6 9 7 10 14 17 19
26 29 29 31 32 31 30 31 31 33 34 34 33 31 28 27 30 28 20 13 10 3 18 24 21 31 42 20 15 30 18 31 23 22 5 31 6 16 23 13 16 25 12 8 8 21 15
27 29 29 30 34 35 34 32 31 33 35 36 36 34 30 27 27 26 20 9 4 17 20 36 42 58 59 54 23 25 30 26 13 12 3 9 15 28 14 22 20 23 6 11 17 23 11
27 28 29 30 33 33 35 34 31 34 35 37 38 37 34 26 24 15 13 14 21 35 10 34 52 48 50 13 21 33 35 47 8 11 10 14 31 8 13 29 20 19 9 15 15 17 12
27 27 29 31 34 35 36 37 34 35 34 36 38 38 35 27 12 10 6 17 26 11 8 14 10 20 37 23 14 32 49 36 10 19 11 14 27 25 18 21 10 16 13 22 16 13 12
30 28 29 30 32 35 37 39 37 36 37 38 37 37 33 31 24 16 17 14 12 6 7 7 9 5 28 21 7 24 27 35 17 12 14 23 9 12 13 32 17 22 17 8 6 7 8
31 33 33 33 32 34 39 42 42 40 40 41 39 36 38 31 26 11 13 6 4 10 10 7 17 15 12 16 8 8 31 25 11 11 9 17 22 10 22 31 13 19 6 14 10 7 6
30 30 32 32 35 34 40 45 45 43 42 44 42 34 40 33 13 5 2 4 9 6 12 1 9 11 11 14 12 7 2 7 14 9 11 14 19 15 13 10 15 2 14 7 9 9 11
28 28 27 28 33 41 41 49 50 48 44 46 43 37 37 32 18 19 7 9 7 7 11 10 12 2 14 12 14 9 6 9 13 10 6 12 19 9 8 15 18 15 17 12 10 5 10
25 25 23 27 33 40 47 48 50 49 41 46 40 36 39 12 26 29 11 5 15 13 6 12 20 9 11 13 10 16 15 14 19 21 20 7 16 13 8 13 19 13 2 12 12 6 8
24 24 25 29 33 41 48 48 49 46 36 37 39 40 27 19 26 38 9 13 11 8 14 12 5 7 12 16 16 16 16 13 15 25 17 14 10 12 16 7 14 16 10 3 7 4 2
29 26 29 36 38 43 46 46 42 40 31 28 24 21 8 33 41 20 8 14 10 20 21 5 10 16 14 14 17 14 17 15 17 17 21 13 11 42 5 6 17 7 1 9 12 11 10
33 29 31 34 33 36 37 37 35 36 28 16 9 3 16 42 9 7 6 9 9 24 41 15 11 22 16 6 5 12 23 22 43 33 21 17 12 15 24 21 11 13 21 13 10 6 5
37 33 31 29 28 30 33 34 30 31 32 28 21 11 28 44 5 6 11 13 14 19 17 10 11 22 21 5 5 10 12 37 35 19 23 14 5 10 22 17 10 6 8 12 14 8 5
38 43 35 29 27 29 30 34 30 28 27 25 10 7 9 42 26 6 5 14 13 23 24 25 19 12 12 4 7 10 7 15 42 29 65 30 8 15 17 16 6 5 7 6 15 9 13
35 37 41 35 24 27 31 31 31 29 22 17 3 7 12 7 10 12 5 12 32 28 14 16 14 10 12 8 17 10 5 16 11 28 17 18 12 8 10 9 9 9 12 11 10 17 13
34 35 38 41 26 24 27 33 36 27 19 8 8 11 19 15 21 8 3 12 33 31 14 32 5 32 15 11 17 26 6 2 17 6 12 1 8 9 8 10 14 11 5 12 12 10 16
29 32 34 35 35 28 27 31 36 31 17 3 8 9 7 14 10 9 9 12 18 26 20 26 27 24 20 22 16 38 45 40 20 11 10 13 12 8 9 7 5 9 5 11 10 10 15
28 30 32 34 34 33 32 30 31 31 24 16 14 14 7 8 6 6 20 21 29 19 13 33 35 12 46 36 40 35 21 29 14 15 11 13 14 7 5 10 3 12 20 23 23 13 16
29 30 31 34 35 35 36 32 26 26 24 17 10 7 4 7 9 18 25 17 31 28 7 12 32 35 50 25 7 11 12 14 16 12 18 10 12 8 11 5 5 9 11 4 36 1 20
32 30 30 32 34 35 35 36 31 23 22 18 8 17 7 10 10 6 15 15 7 9 13 12 37 41 23 5 5 7 8 11 9 11 2 12 12 12 8 11 10 13 3 9 15 1 20
32 31 30 30 31 33 34 32 35 30 21 16 11 10 12 13 30 20 7 9 11 6 6 13 32 25 29 5 4 3 8 7 9 11 12 8 7 14 8 8 7 12 12 8 5 17 54
33 31 31 31 30 31 32 32 33 30 24 14 9 7 10 14 53 58 40 30 26 14 4 13 13 12 12 11 4 6 4 2 7 9 15 14 14 7 9 9 6 25 7 16 15 50 58
33 31 31 31 32 31 30 30 32 29 28 18 9 21 24 29 34 35 41 55 64 62 12 8 8 7 5 3 7 8 7 7 3 7 14 7 6 12 12 14 6 52 16 29 50 67 55
Wind_Direction_850mb
23 22 21 19 13 11 8 4 2 359 357 355 353 347 342 339 339 337 333 327 315 304 293 296 299 298 298 269 248 108 314 274 250 264 270 286 304 302 83 273 140 123 150 139 140 124 127
18 15 13 14 13 10 7 3 1 357 354 352 349 346 341 337 335 333 329 324 312 301 291 289 290 297 285 267 215 228 315 289 252 256 262 278 287 312 287 292 182 166 147 134 145 140 139
9 11 9 6 6 7 4 2 359 356 353 350 346 341 338 335 332 330 326 320 310 296 287 288 288 289 273 233 183 214 231 263 260 259 278 290 307 291 309 331 349 156 120 128 157 147 130
357 358 1 2 0 359 359 358 356 354 351 348 342 338 333 332 327 325 323 317 304 292 281 283 291 292 265 228 233 215 219 246 239 254 275 297 307 300 319 322 344 137 93 142 209 154 184
350 347 348 349 351 354 354 353 352 351 349 346 342 335 330 328 324 322 320 315 304 285 271 274 288 285 266 233 231 195 207 243 247 256 277 286 292 303 331 57 358 359 165 195 190 204 154
342 344 344 343 342 343 347 347 346 347 346 346 342 334 327 325 322 320 320 316 307 283 267 273 258 295 255 314 223 223 220 235 278 271 284 273 294 1 14 75 247 262 224 179 190 216 177
334 335 337 340 339 337 335 337 339 342 343 343 339 334 328 322 318 319 322 320 340 37 303 260 276 259 275 312 248 227 220 213 236 270 244 293 9 253 261 232 251 276 245 246 213 186 153
325 326 330 333 333 333 333 327 330 335 338 337 335 333 329 320 313 314 317 318 7 329 299 289 268 268 270 274 298 226 222 205 194 221 200 331 234 246 256 267 267 270 155 265 288 182 131
322 323 325 328 332 332 334 332 326 326 330 332 332 332 330 322 310 307 316 5 340 316 287 283 249 245 251 257 236 253 215 210 173 212 216 197 243 260 247 277 272 278 187 232 210 163 200
320 318 320 322 327 330 331 331 325 322 321 325 327 329 330 327 307 299 35 359 346 346 33 274 207 239 229 240 273 243 213 200 207 203 224 231 265 247 267 271 276 268 221 201 230 126 203
313 313 314 316 322 325 327 328 322 317 318 318 320 322 322 319 300 290 301 334 4 125 351 231 187 217 191 180 249 208 197 197 192 213 126 247 274 273 266 252 258 251 249 305 153 173 57
308 307 306 309 312 318 323 326 324 315 312 313 310 315 310 310 298 282 258 292 1 47 260 288 156 161 137 194 266 9 217 220 257 223 257 245 281 191 238 265 251 277 256 37 56 88 31
306 308 306 309 310 318 322 323 321 315 310 309 303 305 300 292 273 263 235 342 51 156 310 169 192 161 165 180 248 179 202 202 188 164 251 305 280 279 239 280 320 42 63 4 1 11 229
312 309 305 308 308 312 315 319 320 314 310 309 302 302 287 275 248 228 231 65 176 251 269 300 21 334 185 160 244 220 205 229 258 138 125 199 291 198 242 186 215 229 147 152 194 205 265
330 332 318 304 311 313 314 319 320 315 312 309 309 303 288 263 210 193 171 100 208 212 299 16 344 126 257 229 189 162 207 213 223 182 196 186 267 291 275 250 146 251 146 191 119 133 74
328 327 325 317 314 311 319 321 322 319 320 314 319 317 285 183 179 172 91 231 223 257 6 32 289 272 338 240 175 158 190 216 218 193 171 223 288 250 293 357 281 166 170 84 7 115 95
333 315 309 310 312 315 320 323 325 324 328 318 323 321 339 156 155 150 182 230 281 265 305 278 274 289 256 244 210 176 216 255 205 205 160 156 131 273 6 175 249 269 313 66 119 123 154
338 334 327 326 329 326 329 329 331 332 334 326 317 320 188 163 110 193 200 210 237 267 281 285 255 250 226 258 255 233 208 202 207 192 194 193 164 232 241 270 224 228 195 160 140 237 79
1 343 336 337 339 343 342 339 338 343 343 354 334 280 190 180 159 247 278 269 255 268 261 255 276 291 296 179 328 236 230 236 221 163 185 171 237 258 311 342 358 215 166 126 102 80 183
4 5 355 349 355 359 357 351 346 349 338 345 337 343 190 221 239 179 347 288 271 290 274 248 261 275 279 339 166 283 286 288 226 199 210 152 126 164 216 216 212 24 70 117 122 121 155
349 1 2 356 356 359 359 353 348 346 339 340 289 272 17 303 330 339 311 271 291 295 276 316 301 224 263 323 339 283 296 339 255 214 127 127 152 151 198 208 209 187 79 150 145 163 136
347 347 357 2 350 350 349 346 349 352 357 22 343 1 341 298 296 290 253 299 279 302 240 287 223 301 280 248 199 280 296 73 265 76 127 4 170 128 222 281 250 155 223 154 91 93 79
349 346 347 358 0 336 332 334 342 355 13 355 323 292 324 293 340 14 6 323 319 336 298 268 287 301 285 263 284 284 278 258 232 269 184 119 129 102 241 192 357 19 11 232 124 102 157
341 341 349 347 353 357 347 332 335 344 359 354 349 334 334 284 346 5 331 333 332 320 275 293 300 267 305 309 293 302 282 254 238 228 234 136 117 110 151 51 131 254 302 187 127 107 103
341 341 340 343 349 355 356 352 338 333 338 336 322 262 291 288 318 289 348 320 315 326 305 267 3 327 316 298 25 348 334 351 296 244 206 161 129 122 118 157 233 331 334 92 126 193 138
333 332 336 339 342 348 352 352 347 339 332 341 309 215 235 301 241 1 317 300 303 318 324 297 343 357 5 59 96 208 232 229 286 292 128 83 109 127 102 114 163 196 340 219 132 96 174
329 328 327 329 333 336 342 347 351 343 334 338 171 203 238 268 279 299 236 269 282 294 265 302 333 343 14 336 113 185 258 245 243 212 168 127 53 143 107 131 269 220 138 152 169 215 165
323 322 323 323 324 328 330 336 341 344 341 329 206 211 249 259 272 268 258 272 264 235 218 302 357 0 344 5 80 247 135 314 354 324 297 153 137 149 93 88 238 187 158 170 200 142 161
326 324 322 321 321 322 323 324 329 337 342 321 241 215 252 265 261 271 269 263 250 249 271 291 153 195 244 354 1 326 343 29 192 338 324 29 183 161 154 202 247 163 152 155 151 159 165